Regional Weather Roundup
Issued by NWS

Home | Current Version | Previous Version | Text Only | Print | Product List | Glossary On
Versions: 1 2 3 4 5 6 7 8 9 10 11 12 13 14 15 16 17 18 19 20 21 22 23 24 25 26 27 28 29 30 31 32 33 34 35 36 37 38 39 40 41 42 43 44 45 46 47 48 49 50
000
ASCA42 TJSJ 021211
RWRPR
PUERTO RICO/U.S. VIRGIN ISLANDS HOURLY WEATHER ROUNDUP
NATIONAL WEATHER SERVICE SAN JUAN PR
800 AM AST TUE SEP 02 2014

PRZ001-004-021300-
PUERTO RICO

CITY           SKY/WX    TMP DP  RH WIND       PRES   REMARKS
SAN JUAN LMM   PTSUNNY   81  77  89 CALM      30.00R
MAYAGUEZ       MOSUNNY   75  70  83 E7        30.00
AGUADILLA      MOSUNNY   79  73  83 E5        30.01R
CEIBA          MOSUNNY   82  75  78 SE12      30.02R
$$

PRZ006-007-021300-
U.S. VIRGIN ISLANDS

CITY           SKY/WX    TMP DP  RH WIND       PRES   REMARKS
CHRISTIANSTED  MOSUNNY   84  77  79 E13       30.00R HX  94
$$

HOURLY WEATHER ROUNDUP FOR THE NEWS MEDIA

CITY           SKY/WX    TMP DP  RH WIND       PRES   REMARKS
MIAMI          PTSUNNY   83  74  74 SE8       30.05R
ORLANDO        SUNNY     80  74  81 CALM      30.08R
NEW YORK       PTSUNNY   78  74  87 SW7       29.93R
NEWARK         PTSUNNY   79  74  84 SW7       29.92R
CHICAGO        MOCLDY    68  63  84 CALM      29.87S
HARTFORD       FOG       71  71 100 S5        29.92S VSB 1
BOSTON         MOSUNNY   75  71  87 S5        29.90S
DALLAS         PTCLDY    79  71  76 S13       29.91R
PHILADELPHIA   MOSUNNY   77  72  84 SW9       29.96R



USA.gov is the U.S. government's official web portal to all federal, state and local government web resources and services.